Weather History for 78988 - October, 2012

Change the Weather History Date:

Monday, October 8, 2012

  Actual Average Record
Temperature  
Mean Temperature 86 °F -  
Max Temperature 90 °F 87 °F - ()
Min Temperature 81 °F 77 °F - ()
Cooling Degree Days 20    
Growing Degree Days 36 (Base 50)    
Moisture  
Dew Point 78 °F    
Average Humidity 81    
Maximum Humidity 94    
Minimum Humidity 69    
Precipitation  
Precipitation 0.00 in 0.11 in - ()
Sea Level Pressure  
Sea Level Pressure 29.91 in    
Wind  
Wind Speed 10 mph ()    
Max Wind Speed 16 mph    
Max Gust Speed -    
Visibility 8.2 miles    
Events      
T = Trace of Precipitation, MM = Missing Value Source: Averaged Metar Reports

Daily Weather History Graph

Daily Weather History Graph

Search for Another Location

Airport or City:

Trip Planner

Search our weather history database for the weather conditions in past years. The results will help you decide how hot, cold, wet, or windy it might be!

Date:

Astronomy

Oct. 08, 2012 Rise Set
Actual Time 6:25 AM AST 6:21 PM AST
Civil Twilight 6:03 AM AST 6:42 PM AST
Nautical Twilight 5:39 AM AST 7:06 PM AST
Astronomical Twilight 5:14 AM AST 7:31 PM AST
Moon 12:08 AM AST (10/8) 1:05 PM AST (10/8)
Length of Visible Light 12h 38m
Length of Day
11h 55m
Waning Gibbous, 46% of the Moon is Illuminated
Oct 8
Waning Gibbous
Oct 15
New
Oct 21
First Quarter
Oct 29
Full
Nov 6
Last Quarter

Hourly Weather History & Observations

Time (AST) Temp. Heat Index Dew Point Humidity Pressure Visibility Wind Dir Wind Speed Gust Speed Precip Events Conditions
1:00 AM 82.4 °F 92.4 °F 78.8 °F 89% 29.98 in 6.2 mi East 10.4 mph - N/A   Partly Cloudy
2:00 AM 82 °F - 79 °F 87% 29.91 in 12 mi East 10.4 mph - -   Scattered Clouds
2:00 AM 82.4 °F 92.4 °F 78.8 °F 89% 29.98 in 6.2 mi East 10.4 mph - N/A   Partly Cloudy
3:00 AM 82.4 °F 92.4 °F 78.8 °F 89% 29.95 in 6.2 mi East 10.4 mph - N/A   Partly Cloudy
4:00 AM 82.4 °F 94.0 °F 80.6 °F 94% 29.89 in 6.2 mi East 10.4 mph - N/A   Partly Cloudy
5:00 AM 82.4 °F 90.9 °F 77.0 °F 84% 29.89 in 6.2 mi East 10.4 mph - N/A   Partly Cloudy
6:00 AM 82.4 °F 92.4 °F 78.8 °F 89% 29.92 in 6.2 mi East 10.4 mph - N/A   Partly Cloudy
7:00 AM 82.4 °F 92.4 °F 78.8 °F 89% 29.95 in 6.2 mi East 10.4 mph - N/A   Partly Cloudy
8:00 AM 84 °F - 79 °F 80% 29.95 in 12 mi East 10.4 mph - -   Haze
8:00 AM 84.2 °F 96.1 °F 78.8 °F 84% 29.92 in 6.2 mi East 10.4 mph - N/A   Scattered Clouds
9:00 AM 84.2 °F 96.1 °F 78.8 °F 84% 29.95 in 6.2 mi East 10.4 mph - N/A   Scattered Clouds
10:00 AM 87.8 °F 104.9 °F 80.6 °F 79% 29.95 in 6.2 mi East 12.7 mph - N/A   Scattered Clouds
11:00 AM 91 °F - 84 °F 74% 29.94 in 16 mi ESE 10.4 mph - -   Partly Cloudy
11:00 AM 91.4 °F 117.8 °F 84.2 °F 79% 29.95 in 6.2 mi East 12.7 mph - N/A   Scattered Clouds
12:00 PM 86.0 °F 99.3 °F 78.8 °F 79% 29.92 in 6.2 mi East 15.0 mph - N/A   Scattered Clouds
1:00 PM 87.8 °F 99.7 °F 77.0 °F 70% 29.89 in 6.2 mi East 13.8 mph - N/A   Scattered Clouds
2:00 PM 87 °F - 78 °F 69% 29.88 in 16 mi ESE 11.5 mph - -   Scattered Clouds
2:00 PM 87.8 °F 102.5 °F 78.8 °F 75% 29.89 in 6.2 mi ESE 11.5 mph - N/A   Partly Cloudy
3:00 PM 87.8 °F 99.7 °F 77.0 °F 70% 29.86 in 6.2 mi East 16.1 mph - N/A   Partly Cloudy
4:00 PM 86.0 °F 96.9 °F 77.0 °F 74% 29.86 in 6.2 mi East 12.7 mph - N/A   Partly Cloudy
5:00 PM 85 °F - 77 °F 72% 29.85 in 16 mi East 12.7 mph - -   Scattered Clouds
5:00 PM 86.0 °F 96.9 °F 77.0 °F 74% 29.86 in 6.2 mi East 12.7 mph - N/A   Partly Cloudy
6:00 PM 84.2 °F 94.1 °F 77.0 °F 79% 29.86 in 6.2 mi East 12.7 mph - N/A   Partly Cloudy
7:00 PM 82.4 °F 90.9 °F 77.0 °F 84% 29.86 in 6.2 mi East 12.7 mph - N/A   Partly Cloudy
8:00 PM 82 °F - 77 °F 81% 29.91 in 16 mi East 13.8 mph - -   Scattered Clouds
8:00 PM 82.4 °F 90.9 °F 77.0 °F 84% 29.89 in 6.2 mi East 13.8 mph - N/A   Partly Cloudy
9:00 PM 82.4 °F 90.9 °F 77.0 °F 84% 29.92 in 6.2 mi East 13.8 mph - N/A   Partly Cloudy
10:00 PM 82.4 °F 90.9 °F 77.0 °F 84% 29.92 in 6.2 mi East 13.8 mph - N/A   Partly Cloudy
11:00 PM 82 °F - 77 °F 79% 29.94 in 16 mi ESE 12.7 mph - -   Scattered Clouds
11:00 PM 82.4 °F 90.9 °F 77.0 °F 84% 29.92 in 6.2 mi East 16.1 mph - N/A   Partly Cloudy